• In Belarus
  • List of Countries
  • For 7 days
  • Water Temperature
  • Satellite Maps
  • Weather Map
  • Weather Widgets
  • user-avatar
    Login

    Hourly Weather Bolshaya Aleshnya

    Today, 17 February, Sunday

    Time Temperature Precipitation Wind Pressure Humidity
    00:00 -4°C° 0 mm 5 mps 740 mmHg 90%
    01:00 -4°C° 0 mm 5 mps 740 mmHg 88%
    02:00 -4°C° 0 mm 4 mps 739 mmHg 87%
    03:00 -4°C° 0 mm 5 mps 738 mmHg 85%
    04:00 -4°C° 0 mm 5 mps 738 mmHg 83%
    05:00 -4°C° 0 mm 6 mps 737 mmHg 81%
    06:00 -4°C° 0 mm 6 mps 737 mmHg 82%
    07:00 -3°C° 0 mm 6 mps 736 mmHg 84%
    08:00 -3°C° 0 mm 6 mps 736 mmHg 85%
    09:00 -3°C° 0 mm 6 mps 736 mmHg 88%
    10:00 -2°C° 0 mm 6 mps 735 mmHg 91%
    11:00 -2°C° 0 mm 6 mps 735 mmHg 93%
    12:00 -1°C° 0 mm 6 mps 735 mmHg 93%
    13:00 -1°C° 0 mm 6 mps 735 mmHg 92%
    14:00 -1°C° 0 mm 7 mps 735 mmHg 91%
    15:00 -2°C° 0 mm 6 mps 735 mmHg 86%
    16:00 -2°C° 0 mm 6 mps 736 mmHg 82%
    17:00 -3°C° 0 mm 6 mps 736 mmHg 77%
    18:00 -3°C° 0 mm 7 mps 736 mmHg 78%
    19:00 -3°C° 0 mm 7 mps 737 mmHg 79%
    20:00 -4°C° 0 mm 7 mps 737 mmHg 80%
    21:00 -4°C° 0 mm 7 mps 738 mmHg 79%
    22:00 -6°C° 0 mm 7 mps 738 mmHg 78%
    23:00 -7°C° 0 mm 7 mps 738 mmHg 78%

    Tomorrow, 18 February, Monday

    Time Temperature Precipitation Wind Pressure Humidity
    00:00 -7°C° 0 mm 7 mps 739 mmHg 79%
    01:00 -6°C° 0 mm 6 mps 740 mmHg 79%
    02:00 -8°C° 0 mm 6 mps 740 mmHg 80%
    03:00 -8°C° 0 mm 6 mps 741 mmHg 81%
    04:00 -8°C° 0 mm 6 mps 741 mmHg 82%
    05:00 -9°C° 0 mm 6 mps 742 mmHg 83%
    06:00 -9°C° 0 mm 6 mps 743 mmHg 81%
    07:00 -9°C° 0 mm 6 mps 743 mmHg 80%
    08:00 -9°C° 0 mm 7 mps 744 mmHg 79%
    09:00 -9°C° 0 mm 7 mps 745 mmHg 78%
    10:00 -9°C° 0 mm 7 mps 745 mmHg 78%
    11:00 -9°C° 0 mm 6 mps 746 mmHg 78%
    12:00 -9°C° 0 mm 6 mps 746 mmHg 78%
    13:00 -9°C° 0 mm 6 mps 747 mmHg 78%
    14:00 -8°C° 0 mm 6 mps 747 mmHg 78%
    15:00 -8°C° 0 mm 5 mps 748 mmHg 81%
    16:00 -9°C° 0 mm 4 mps 748 mmHg 83%
    17:00 -10°C° 0 mm 4 mps 749 mmHg 85%
    18:00 -10°C° 0 mm 3 mps 749 mmHg 86%
    19:00 -10°C° 0 mm 3 mps 750 mmHg 87%
    20:00 -12°C° 0 mm 3 mps 750 mmHg 89%
    21:00 -12°C° 0 mm 2 mps 750 mmHg 89%
    22:00 -12°C° 0 mm 2 mps 751 mmHg 90%
    23:00 -13°C° 0 mm 2 mps 751 mmHg 91%

    Day after tomorrow, 19 February, Tuesday

    Time Temperature Precipitation Wind Pressure Humidity
    00:00 -11°C° 0 mm 1 mps 751 mmHg 91%
    01:00 -11°C° 0 mm 1 mps 752 mmHg 91%
    02:00 -11°C° 0 mm 1 mps 752 mmHg 90%
    03:00 -11°C° 0 mm 1 mps 752 mmHg 90%
    04:00 -11°C° 0 mm 1 mps 752 mmHg 89%
    05:00 -13°C° 0 mm 2 mps 752 mmHg 89%
    06:00 -13°C° 0 mm 2 mps 751 mmHg 88%
    07:00 -12°C° 0 mm 2 mps 751 mmHg 87%
    08:00 -13°C° 0 mm 3 mps 751 mmHg 86%
    09:00 -10°C° 0 mm 3 mps 751 mmHg 84%
    10:00 -9°C° 0 mm 4 mps 751 mmHg 82%
    11:00 -8°C° 0 mm 4 mps 750 mmHg 80%
    12:00 -7°C° 0 mm 5 mps 750 mmHg 79%
    13:00 -6°C° 0 mm 5 mps 749 mmHg 78%
    14:00 -5°C° 0 mm 5 mps 749 mmHg 77%
    15:00 -6°C° 0 mm 5 mps 748 mmHg 78%
    16:00 -6°C° 0 mm 5 mps 748 mmHg 79%
    17:00 -7°C° 0 mm 5 mps 747 mmHg 80%
    18:00 -7°C° 0 mm 5 mps 747 mmHg 80%
    19:00 -8°C° 0 mm 5 mps 746 mmHg 81%
    20:00 -8°C° 0 mm 5 mps 746 mmHg 81%
    21:00 -8°C° 0 mm 5 mps 745 mmHg 81%
    22:00 -9°C° 0 mm 6 mps 745 mmHg 81%
    23:00 -9°C° 0 mm 6 mps 744 mmHg 81%

    20 February, Wednesday

    Time Temperature Precipitation Wind Pressure Humidity
    00:00 -9°C° 0 mm 6 mps 744 mmHg 81%
    01:00 -9°C° 0 mm 6 mps 743 mmHg 81%
    02:00 -9°C° 0 mm 6 mps 743 mmHg 82%
    03:00 -9°C° 0 mm 6 mps 742 mmHg 83%
    04:00 -9°C° 0 mm 6 mps 741 mmHg 85%
    05:00 -8°C° 0 mm 6 mps 741 mmHg 86%
    06:00 -8°C° 0 mm 6 mps 740 mmHg 87%
    07:00 -6°C° 0 mm 6 mps 740 mmHg 88%
    08:00 -5°C° 0 mm 6 mps 739 mmHg 89%
    09:00 -4°C° 0.1 mm 6 mps 739 mmHg 89%
    10:00 -4°C° 0.1 mm 6 mps 739 mmHg 90%
    11:00 -3°C° 0.1 mm 6 mps 739 mmHg 90%
    12:00 -3°C° 0.1 mm 6 mps 738 mmHg 91%
    13:00 -2°C° 0.1 mm 6 mps 738 mmHg 92%
    14:00 -2°C° 0.1 mm 6 mps 738 mmHg 93%
    15:00 -2°C° 0 mm 6 mps 738 mmHg 92%
    16:00 -2°C° 0 mm 6 mps 737 mmHg 92%
    17:00 -2°C° 0 mm 6 mps 737 mmHg 91%
    18:00 -2°C° 0.1 mm 6 mps 737 mmHg 91%
    19:00 -2°C° 0.1 mm 6 mps 736 mmHg 91%
    20:00 -2°C° 0.1 mm 6 mps 736 mmHg 91%
    21:00 -2°C° 0.3 mm 6 mps 736 mmHg 90%
    22:00 -2°C° 0.3 mm 6 mps 736 mmHg 89%
    23:00 -2°C° 0.3 mm 6 mps 735 mmHg 87%

    21 February, Thursday

    Time Temperature Precipitation Wind Pressure Humidity
    00:00 -3°C° 0 mm 6 mps 735 mmHg 86%
    01:00 -5°C° 0 mm 6 mps 735 mmHg 84%
    02:00 -6°C° 0 mm 5 mps 735 mmHg 83%
    03:00 -6°C° 0 mm 5 mps 735 mmHg 84%
    04:00 -7°C° 0 mm 5 mps 735 mmHg 84%
    05:00 -8°C° 0 mm 5 mps 735 mmHg 85%
    06:00 -7°C° 0 mm 5 mps 735 mmHg 86%
    07:00 -8°C° 0 mm 6 mps 735 mmHg 86%
    08:00 -8°C° 0 mm 6 mps 735 mmHg 86%
    09:00 -8°C° 0.1 mm 7 mps 736 mmHg 83%
    10:00 -8°C° 0.1 mm 7 mps 736 mmHg 81%
    11:00 -8°C° 0.1 mm 8 mps 736 mmHg 78%
    12:00 -8°C° 0.1 mm 8 mps 737 mmHg 78%
    13:00 -8°C° 0.1 mm 8 mps 738 mmHg 79%
    14:00 -8°C° 0.1 mm 8 mps 738 mmHg 80%
    15:00 -8°C° 0.1 mm 7 mps 739 mmHg 80%
    16:00 -9°C° 0.1 mm 7 mps 740 mmHg 80%
    17:00 -9°C° 0.1 mm 7 mps 740 mmHg 79%
    18:00 -10°C° 0 mm 6 mps 741 mmHg 80%
    19:00 -10°C° 0 mm 6 mps 742 mmHg 81%
    20:00 -11°C° 0 mm 6 mps 743 mmHg 81%
    21:00 -11°C° 0 mm 6 mps 743 mmHg 82%
    22:00 -12°C° 0 mm 5 mps 744 mmHg 83%
    23:00 -12°C° 0 mm 5 mps 744 mmHg 83%

    22 February, Friday

    Time Temperature Precipitation Wind Pressure Humidity
    00:00 -13°C° 0 mm 5 mps 745 mmHg 83%
    01:00 -13°C° 0 mm 5 mps 745 mmHg 83%
    02:00 -14°C° 0 mm 4 mps 745 mmHg 84%
    03:00 -14°C° 0 mm 5 mps 746 mmHg 84%
    04:00 -15°C° 0 mm 5 mps 746 mmHg 85%
    05:00 -15°C° 0 mm 5 mps 746 mmHg 85%
    06:00 -15°C° 0 mm 5 mps 746 mmHg 85%
    07:00 -15°C° 0 mm 5 mps 747 mmHg 84%
    08:00 -15°C° 0 mm 5 mps 747 mmHg 83%
    09:00 -15°C° 0 mm 6 mps 748 mmHg 81%
    10:00 -15°C° 0 mm 6 mps 748 mmHg 79%
    11:00 -14°C° 0 mm 6 mps 748 mmHg 78%
    12:00 -14°C° 0 mm 6 mps 748 mmHg 77%
    13:00 -13°C° 0 mm 7 mps 749 mmHg 77%
    14:00 -13°C° 0 mm 7 mps 749 mmHg 76%
    15:00 -12°C° 0 mm 6 mps 749 mmHg 77%
    16:00 -12°C° 0 mm 6 mps 750 mmHg 77%
    17:00 -12°C° 0 mm 6 mps 750 mmHg 78%
    18:00 -12°C° 0 mm 6 mps 751 mmHg 79%
    19:00 -12°C° 0 mm 6 mps 752 mmHg 80%
    20:00 -12°C° 0 mm 6 mps 752 mmHg 81%
    21:00 -13°C° 0 mm 5 mps 753 mmHg 82%
    22:00 -14°C° 0 mm 5 mps 753 mmHg 84%
    23:00 -14°C° 0 mm 4 mps 753 mmHg 86%
    Show more